Date,TemperatureHighF,TemperatureAvgF,TemperatureLowF,DewpointHighF,DewpointAvgF,DewpointLowF,HumidityHigh,HumidityAvg,HumidityLow,PressureMaxIn,PressureMinIn,WindSpeedMaxMPH,WindSpeedAvgMPH,GustSpeedMaxMPH,PrecipitationSumIn
2013-4-1,44,36,31,33,30,26,96,77,52,30.03,29.93,0,0,0,0.00
2013-4-2,44,36,28,33,28,24,90,74,50,30.02,29.97,0,0,0,0.00
2013-4-3,41,37,34,35,33,32,94,85,73,30.03,29.98,0,0,0,0.00
2013-4-4,40,37,35,34,32,27,92,81,63,29.98,29.60,0,0,0,0.00
2013-4-5,42,37,32,30,28,25,85,68,58,29.57,29.36,0,0,0,0.00
2013-4-6,46,35,29,31,26,18,91,72,40,29.47,29.32,0,0,0,0.00
2013-4-7,30,27,23,20,13,6,71,56,37,29.68,29.47,0,0,0,0.00
2013-4-8,31,24,20,14,10,3,73,54,35,29.65,29.28,0,0,0,0.00
2013-4-9,26,20,17,13,5,-1,69,53,34,29.55,29.14,0,0,0,0.00
2013-4-10,29,22,15,9,4,0,61,47,32,29.90,29.55,0,0,0,0.00
2013-4-11,28,22,16,19,13,7,79,67,46,30.01,29.89,0,0,0,0.00
2013-4-12,34,26,19,15,10,3,74,52,32,30.03,29.98,0,0,0,0.00
2013-4-13,38,30,22,13,11,6,63,45,28,30.31,30.05,0,0,0,0.00
2013-4-14,46,36,27,27,19,11,74,51,32,30.41,30.31,0,0,0,0.00
2013-4-15,43,35,29,31,25,19,77,66,39,30.36,30.10,0,0,0,0.00
2013-4-16,43,37,28,30,21,11,79,54,29,30.11,29.98,0,0,0,0.00
2013-4-17,45,34,26,26,19,11,75,55,30,30.05,30.01,0,0,0,0.00
2013-4-18,43,34,27,25,22,17,74,59,38,30.05,30.00,0,0,0,0.00
2013-4-19,45,36,27,31,24,16,82,63,32,30.20,30.04,0,0,0,0.00
2013-4-20,40,36,33,34,28,23,94,71,52,30.25,30.17,0,0,0,0.00
2013-4-21,37,34,32,35,33,32,97,95,91,30.25,30.02,0,0,0,0.00
2013-4-22,41,37,33,37,35,32,96,93,83,30.32,30.21,0,0,0,0.04
2013-4-23,43,40,38,42,39,37,97,96,94,30.26,30.15,0,0,0,0.00
2013-4-24,52,42,34,43,38,33,97,86,64,30.26,29.76,0,0,0,0.00
2013-4-25,46,41,36,36,26,16,76,55,36,29.76,29.55,0,0,0,0.00
2013-4-26,48,41,35,28,20,11,61,44,29,29.61,29.43,0,0,0,0.00
2013-4-27,44,38,34,30,25,19,84,58,41,29.83,29.46,0,0,0,0.00
2013-4-28,46,40,34,24,22,18,64,49,36,30.09,29.83,0,0,0,0.00
2013-4-29,50,40,30,36,26,21,75,59,38,30.11,30.02,0,0,0,0.00
2013-4-30,47,38,32,35,30,26,88,72,50,30.03,29.59,0,0,0,0.00